Probability
18 19 20 18 16 15 14 17 23 28 33 37 38 35 30 24 18 11 6 2 1 0 0 0 0 0 0 0 0 0 0 0 0 0 0 0 0 0 0 0 0 0 0
17 18 19 17 15 15 14 14 17 22 27 31 34 34 30 24 17 12 8 5 2 0 0 0 0 0 0 0 0 0 0 0 0 0 0 0 0 0 0 0 0 0 0
16 17 15 12 11 12 12 11 12 16 20 25 28 27 25 21 16 12 9 7 3 1 0 0 0 0 0 0 0 0 0 0 0 0 0 0 0 0 0 0 0 0 0
12 13 11 7 6 7 9 11 13 16 18 21 22 20 17 15 13 11 10 7 4 1 0 0 0 0 0 0 0 0 0 0 0 0 0 0 0 0 0 0 0 0 0
6 7 6 4 2 3 6 11 16 18 18 18 18 15 13 12 11 10 8 6 4 1 0 0 0 0 0 0 0 0 0 0 0 0 0 0 0 0 0 0 0 0 0
1 2 3 2 1 1 5 10 16 18 16 14 14 13 11 9 9 7 5 4 3 1 0 0 0 0 0 0 0 0 0 0 0 0 0 0 0 0 0 0 0 0 0
1 2 3 2 2 2 3 8 14 16 14 13 13 12 10 8 6 4 3 3 2 1 0 0 0 0 0 0 0 0 0 0 0 0 0 0 0 0 0 0 0 0 0
0 1 2 3 3 2 3 6 11 13 13 13 12 11 10 8 5 3 1 2 2 1 0 0 0 0 0 0 0 0 0 0 0 0 0 0 0 0 0 0 0 0 0
1 0 1 3 3 2 2 5 8 9 11 12 11 10 9 8 4 1 0 1 1 0 0 0 0 0 0 0 0 0 0 0 0 0 0 0 0 0 0 0 0 0 0
2 1 1 2 1 1 1 3 5 7 8 9 9 9 8 6 4 2 1 1 1 1 1 0 0 0 0 0 0 0 0 0 0 0 0 0 0 0 0 0 0 0 0
4 3 1 0 0 0 0 1 2 4 5 5 7 9 8 6 5 5 3 2 2 2 2 1 0 0 0 0 0 0 0 0 0 0 0 0 0 0 0 0 0 0 0
5 3 1 1 1 1 0 0 1 2 3 3 4 6 8 7 7 7 4 3 3 3 3 1 1 1 0 0 0 0 0 0 0 0 0 0 0 0 0 0 0 1 1
7 5 3 2 2 2 2 1 2 2 3 4 4 5 6 7 7 6 5 5 5 5 4 3 2 1 0 0 0 0 1 1 1 1 1 0 0 1 2 2 3 4 4
12 10 7 6 6 6 6 5 5 6 6 5 5 6 7 8 8 7 7 7 7 6 5 4 3 2 1 1 1 1 2 2 2 3 3 2 1 3 3 4 7 10 11
17 14 11 10 10 10 11 11 12 11 9 6 6 7 8 10 9 8 8 9 8 6 5 5 4 3 2 2 2 2 4 4 5 6 6 4 2 2 2 3 7 11 14
21 19 17 15 13 12 14 17 18 17 13 10 9 8 8 9 10 9 9 10 9 7 5 5 4 3 1 1 1 2 4 5 6 8 7 3 1 0 0 1 3 6 8
23 24 23 21 18 15 16 19 21 22 20 17 13 11 10 11 10 9 10 12 11 7 5 5 4 3 1 0 0 0 1 3 5 6 5 3 1 0 0 1 1 2 3
25 25 24 23 21 18 19 21 22 22 23 20 16 13 13 13 12 11 11 12 10 6 4 4 4 4 2 0 0 0 0 1 1 2 3 3 2 1 0 1 2 2 2
27 26 24 23 23 23 25 26 23 20 18 17 15 13 13 12 11 10 9 8 6 4 2 2 3 2 1 0 0 0 0 0 0 1 2 3 2 1 0 1 2 2 2
29 28 27 26 28 29 29 27 22 17 13 11 11 11 10 8 7 7 5 4 3 2 1 1 0 0 0 0 0 0 1 1 1 1 2 1 1 0 0 0 1 2 2
25 26 27 27 28 28 25 21 16 13 9 7 7 8 6 4 3 3 2 1 1 1 1 0 0 0 0 0 0 0 1 1 2 1 1 0 0 0 0 0 1 2 2
16 17 19 18 17 17 16 13 10 8 6 4 4 4 2 1 1 1 0 0 0 0 0 0 0 0 0 0 0 0 0 1 1 1 0 0 0 0 0 0 0 1 1
6 6 7 7 6 7 7 6 5 4 3 2 1 1 0 0 0 0 0 0 0 0 0 0 0 0 0 0 0 0 0 0 0 0 0 0 0 0 0 0 0 0 0
1 1 1 1 1 1 2 1 1 1 1 0 0 0 0 0 0 0 0 0 0 0 0 0 0 0 0 0 0 0 0 0 0 0 0 0 0 0 0 0 0 0 0
0 0 0 0 0 0 0 0 0 0 0 0 0 0 0 0 0 0 0 0 0 0 0 0 0 0 0 0 0 0 0 0 0 0 0 0 0 0 0 0 0 0 0
0 0 0 0 0 0 0 0 0 0 0 0 0 0 0 0 0 0 0 0 0 0 0 0 0 0 0 0 0 0 0 0 0 0 0 0 0 0 0 0 0 0 0
Wind_Speed
10 10 10 10 11 11 11 11 12 12 10 8 8 7 7 6 5 4 5 5 5 5 4 3 4 4 3 3 4 4 5 4 3 3 4 4 4 3 3 3 3 4 4
10 10 11 11 12 12 12 11 12 12 11 8 6 5 6 5 5 4 5 5 5 5 5 3 4 4 3 4 4 4 3 3 3 3 3 4 5 5 4 3 4 3 4
9 10 11 11 11 11 12 11 12 12 11 10 7 7 6 5 5 6 5 5 5 5 3 4 3 3 4 4 4 4 5 4 4 3 3 3 2 4 5 3 3 3 3
8 9 10 10 11 11 11 12 12 11 11 11 10 11 9 8 7 6 5 6 6 6 5 5 4 3 3 3 5 4 3 4 4 4 2 3 4 2 3 5 5 4 4
7 8 9 9 9 10 11 11 12 11 11 11 11 10 8 7 6 6 7 6 6 5 5 5 4 4 3 2 1 2 4 4 4 3 3 3 2 4 3 1 3 4 4
7 8 7 8 8 9 10 10 11 11 11 11 11 10 10 9 9 8 8 7 6 6 6 6 4 4 3 3 3 2 4 3 2 3 3 3 3 3 3 2 3 3 3
8 8 9 9 8 9 10 10 11 11 11 11 10 11 11 10 10 9 8 7 6 6 7 6 5 4 3 3 3 3 2 3 3 3 3 2 2 2 3 3 3 2 2
8 9 9 9 9 10 10 11 11 11 11 10 9 10 10 8 7 8 7 7 5 5 7 6 6 5 5 4 4 4 4 2 3 3 2 3 2 2 3 3 4 4 4
9 9 9 10 10 10 10 11 11 11 10 10 9 9 9 8 7 7 7 6 5 5 7 7 6 6 6 5 5 3 3 3 4 4 5 5 2 3 3 3 4 5 5
9 10 10 11 10 10 10 10 11 11 11 11 10 8 9 8 7 7 7 6 6 5 7 7 7 7 7 6 6 5 4 4 4 3 2 4 4 3 3 4 4 4 5
10 10 10 11 12 11 12 11 11 10 10 10 9 9 9 9 8 7 7 7 7 7 8 8 8 7 7 7 7 6 5 6 5 5 5 5 5 4 4 4 4 4 5
10 10 11 12 12 12 12 12 11 11 10 10 9 9 8 8 8 8 8 8 8 8 8 8 8 8 8 8 8 8 7 7 7 7 6 6 5 6 6 5 6 5 4
10 11 11 11 12 12 12 12 12 11 11 10 10 9 9 9 8 7 7 8 8 7 7 7 8 7 7 7 8 8 7 8 7 7 7 7 7 7 6 6 6 5 6
11 11 11 11 11 11 11 11 11 11 11 10 10 9 9 8 7 7 7 7 7 7 7 6 6 6 6 6 7 7 7 7 6 6 5 5 5 5 5 5 5 6 6
12 12 12 11 11 11 11 11 10 10 10 10 9 9 8 8 7 6 6 5 5 5 5 4 4 4 4 3 5 6 6 5 5 4 3 1 2 4 3 3 3 4 5
13 13 12 12 12 11 11 11 11 11 10 10 9 8 8 7 7 6 5 5 4 3 2 2 2 1 1 4 3 2 2 1 1 1 1 1 3 3 2 3 4 5 5
11 12 11 11 10 10 10 11 10 10 10 10 9 8 7 7 6 6 6 5 4 4 4 4 4 5 6 7 5 3 2 3 3 2 1 1 3 2 1 0 1 0 1
9 9 9 9 9 9 9 10 10 10 10 9 8 8 7 7 6 6 6 6 6 6 6 6 6 7 8 8 7 5 4 4 4 4 3 3 3 4 4 2 1 1 1
7 7 8 9 9 10 10 11 11 10 9 9 8 8 8 8 8 8 8 7 7 7 7 7 8 8 9 10 8 4 3 4 5 4 4 3 3 6 6 3 3 3 3
6 7 8 9 10 10 11 12 11 11 10 9 8 8 8 9 10 9 8 8 8 8 8 9 9 9 9 11 10 7 2 3 3 3 4 8 7 7 7 5 5 5 5
9 9 10 10 9 10 11 12 12 11 10 10 10 10 10 10 11 10 8 8 8 9 9 9 9 9 9 10 12 11 5 4 3 2 2 6 7 5 5 6 5 5 8
11 11 11 12 11 11 12 13 12 11 11 11 12 11 10 10 10 10 9 9 9 9 9 8 7 7 7 8 9 10 9 7 4 3 4 5 4 4 5 4 4 6 9
12 12 13 14 12 11 12 14 12 11 12 12 12 11 11 10 9 9 9 8 6 5 5 5 5 5 5 6 6 6 5 5 4 4 4 2 3 6 5 4 5 8 7
12 13 14 15 14 13 13 12 11 10 12 12 11 11 11 10 9 6 6 6 5 4 4 4 4 4 4 5 4 2 2 1 1 2 2 7 8 7 5 5 4 5 5
12 12 13 14 14 12 12 11 10 10 12 11 10 10 10 10 9 10 9 8 10 8 5 5 4 4 5 8 10 8 7 7 7 8 6 4 4 5 5 5 5 6 6
12 13 14 14 14 13 12 11 10 10 10 9 8 7 7 7 7 9 10 16 13 14 16 15 10 10 10 6 6 6 5 5 8 9 5 5 6 6 7 7 7 6 7
Wind_Direction
188 181 185 187 184 183 178 181 182 178 175 172 171 167 171 170 174 174 167 180 185 178 207 199 173 216 199 204 197 196 182 200 193 204 184 177 184 181 180 198 206 187 196
188 183 188 192 193 187 183 180 183 180 180 175 170 169 164 170 166 166 164 181 181 183 191 200 196 194 185 194 202 218 228 187 208 242 213 194 175 194 184 187 200 203 196
193 189 193 196 193 189 185 183 183 183 179 169 159 155 152 161 164 172 172 179 181 186 193 192 214 191 215 188 205 209 223 215 199 242 264 251 208 161 165 189 190 201 208
191 190 191 189 188 187 183 180 177 178 173 169 172 172 176 176 172 172 163 170 179 182 181 186 190 206 218 175 208 201 228 232 212 189 250 312 352 285 170 184 177 188 210
186 186 187 185 184 181 177 174 173 172 173 177 177 180 180 172 161 162 158 177 170 180 178 177 179 190 204 183 218 178 238 226 237 214 202 207 223 261 274 206 177 189 193
175 174 176 172 169 168 168 168 168 169 172 177 179 185 178 170 162 169 168 182 171 177 173 176 178 191 181 171 192 203 202 244 255 260 235 226 233 237 251 250 228 211 182
170 168 169 169 166 165 165 165 167 169 171 176 183 183 178 173 175 179 181 186 176 174 169 175 178 182 173 181 187 199 204 201 205 235 242 250 265 288 278 276 266 248 200
169 166 166 168 168 165 164 165 168 169 170 175 179 178 176 178 178 185 184 187 186 173 162 177 183 186 188 191 188 206 191 191 212 228 260 258 244 259 265 277 280 256 227
163 162 163 166 164 164 165 167 167 168 171 172 169 172 178 179 173 176 192 185 178 170 174 185 189 193 195 200 201 208 197 193 219 208 201 236 215 237 255 265 276 284 279
163 159 163 162 160 161 161 165 167 168 170 172 171 169 174 175 176 183 187 183 182 184 185 193 198 199 198 200 210 208 195 209 218 245 250 252 246 232 242 251 254 266 280
164 160 161 161 161 161 160 162 163 165 170 172 172 171 174 176 178 185 189 187 191 192 199 202 205 206 205 205 210 227 205 217 218 221 222 228 261 255 248 241 246 248 257
162 158 158 161 163 164 163 162 165 167 168 169 171 174 173 175 182 186 190 193 196 203 205 208 210 213 212 210 214 223 219 221 225 225 227 232 226 229 254 255 251 253 260
163 159 158 163 166 167 168 167 169 168 168 168 171 174 176 180 187 189 193 197 201 207 210 211 215 218 220 218 220 224 225 227 230 230 230 234 237 236 242 246 254 254 247
165 164 162 165 166 167 168 169 170 168 167 168 171 175 178 179 184 187 193 197 203 207 209 212 216 218 221 222 225 225 227 230 232 236 238 240 241 245 250 248 255 266 269
169 169 168 165 167 168 169 170 169 168 167 169 172 173 171 170 175 177 183 191 202 206 203 205 210 216 224 236 237 235 230 224 225 222 225 233 51 28 343 307 293 282 273
171 169 169 169 170 171 171 169 169 166 166 168 168 166 165 166 167 168 171 172 171 171 160 154 139 99 29 42 29 281 245 192 185 166 137 111 85 70 59 19 5 344 301
170 167 167 169 169 171 169 166 162 160 161 161 160 157 158 160 157 155 149 142 131 114 100 94 92 80 57 58 68 73 98 98 94 96 90 77 63 42 32 115 207 9 9
161 159 159 155 155 156 156 153 149 150 151 149 144 140 144 141 135 128 116 108 102 98 96 92 88 83 64 57 67 75 95 87 82 80 81 77 51 31 357 335 338 307 293
141 142 147 146 145 146 143 140 138 136 134 130 128 127 129 124 117 108 104 102 104 103 100 93 88 82 65 49 48 42 96 92 86 78 67 60 67 35 355 327 322 309 296
117 124 125 124 127 132 134 130 128 125 121 118 115 112 111 111 108 104 103 104 105 103 99 90 83 80 72 52 40 15 70 86 91 97 97 68 46 33 359 332 324 315 322
108 110 110 108 108 114 118 115 111 110 111 109 104 101 101 103 103 103 104 107 105 101 97 94 89 81 73 65 45 25 29 33 32 37 45 70 54 25 354 322 327 338 315
101 101 99 97 96 102 106 103 100 103 106 104 101 99 100 101 103 104 102 103 109 111 108 104 99 92 82 65 58 49 41 11 24 17 24 53 34 343 314 316 346 312 291
98 99 100 96 92 93 99 100 99 102 102 100 99 99 98 96 101 105 108 110 111 108 109 109 104 99 94 96 90 79 61 23 10 31 56 3 284 284 262 216 261 281 288
100 101 100 96 91 89 90 94 100 105 105 103 102 102 100 97 90 89 91 88 84 91 97 93 92 96 85 54 35 36 62 150 329 348 224 218 232 252 283 288 266 291 321
100 99 98 97 96 94 95 97 101 103 103 103 104 103 98 93 85 70 49 54 53 37 36 54 56 45 66 46 23 5 10 359 3 325 303 312 329 325 332 331 333 326 322
102 101 98 98 97 95 94 93 95 100 105 108 109 108 107 106 108 106 89 57 64 65 59 49 50 69 68 66 43 30 12 342 320 305 323 343 341 337 336 331 329 327 327